Renton, WA

1:41 PM PST on February 12, 2016 (GMT -0800)
Renton Municipal

Weather History for KRNT - May, 2012

Change the Weather History Date:

Thursday, May 17, 2012

  Actual Average Record
Temperature  
Mean Temperature 55 °F -  
Max Temperature 64 °F 64 °F 91 °F (2008)
Min Temperature 46 °F 47 °F 37 °F (2011)
Degree Days  
Heating Degree Days 10    
Growing Degree Days 5 (Base 50)    
Moisture  
Dew Point 42 °F    
Average Humidity 65    
Maximum Humidity 86    
Minimum Humidity 39    
Precipitation  
Precipitation 0.23 in - - ()
Sea Level Pressure  
Sea Level Pressure 30.06 in    
Wind  
Wind Speed 5 mph (South)    
Max Wind Speed 8 mph    
Max Gust Speed -    
Visibility 9 miles    
Events Rain    
Averages and records for this station are not official NWS values.
T = Trace of Precipitation, MM = Missing Value Source: NWS Daily Summary

Daily Weather History Graph

Daily Weather History Graph

Search for Another Location

Airport or City:

Trip Planner

Search our weather history database for the weather conditions in past years. The results will help you decide how hot, cold, wet, or windy it might be!

Date:

Astronomy

May. 17, 2012 Rise Set
Actual Time 5:28 AM PDT 8:42 PM PDT
Civil Twilight 4:51 AM PDT 9:19 PM PDT
Nautical Twilight 4:03 AM PDT 10:08 PM PDT
Astronomical Twilight 3:03 AM PDT 11:09 PM PDT
Moon 3:40 AM PDT (5/17) 5:51 PM PDT (5/17)
Length of Visible Light 16h 27m
Length of Day
15h 13m
Waning Crescent, 9% of the Moon is Illuminated
May 17
Waning Crescent
May 20
New
May 28
First Quarter
Jun 4
Full
Jun 11
Last Quarter

Hourly Weather History & Observations

Time (PDT) Temp. Windchill Dew Point Humidity Pressure Visibility Wind Dir Wind Speed Gust Speed Precip Events Conditions
12:53 AM 53.1 °F - 41.0 °F 64% 30.07 in 10.0 mi South 8.1 mph - N/A   Scattered Clouds
1:53 AM 52.0 °F - 41.0 °F 66% 30.07 in 10.0 mi South 6.9 mph - N/A   Overcast
2:53 AM 50.0 °F - 39.9 °F 68% 30.08 in 10.0 mi SSE 8.1 mph - N/A   Clear
3:53 AM 48.0 °F - 37.9 °F 68% 30.09 in 10.0 mi Calm Calm - N/A   Clear
4:53 AM 46.0 °F 43.9 °F 39.0 °F 76% 30.09 in 10.0 mi SE 4.6 mph - N/A   Clear
5:53 AM 46.0 °F 44.8 °F 39.0 °F 76% 30.09 in 10.0 mi SE 3.5 mph - N/A   Clear
6:53 AM 46.9 °F - 39.9 °F 77% 30.09 in 10.0 mi Calm Calm - N/A   Mostly Cloudy
7:53 AM 48.9 °F - 39.9 °F 71% 30.09 in 10.0 mi SSE 5.8 mph - N/A   Overcast
8:53 AM 50.0 °F - 41.0 °F 71% 30.10 in 10.0 mi SE 3.5 mph - N/A   Overcast
9:53 AM 52.0 °F - 41.0 °F 66% 30.09 in 10.0 mi South 5.8 mph - N/A   Overcast
10:53 AM 54.0 °F - 42.1 °F 64% 30.09 in 10.0 mi South 6.9 mph - N/A   Scattered Clouds
11:53 AM 57.0 °F - 39.9 °F 53% 30.08 in 10.0 mi South 4.6 mph - N/A   Clear
12:53 PM 59.0 °F - 41.0 °F 51% 30.06 in 10.0 mi Calm Calm - N/A   Partly Cloudy
1:53 PM 59.0 °F - 42.1 °F 53% 30.05 in 10.0 mi Calm Calm - N/A   Partly Cloudy
2:53 PM 62.1 °F - 37.0 °F 39% 30.04 in 10.0 mi Variable 6.9 mph - N/A   Clear
3:53 PM 63.0 °F - 39.9 °F 43% 30.03 in 10.0 mi NNW 8.1 mph - N/A   Clear
4:53 PM 64.0 °F - 39.0 °F 40% 30.02 in 10.0 mi NNW 4.6 mph - N/A   Scattered Clouds
5:53 PM 62.1 °F - 39.0 °F 43% 30.01 in 10.0 mi North 3.5 mph - N/A   Overcast
6:53 PM 57.0 °F - 45.0 °F 64% 30.01 in 5.0 mi West 3.5 mph - 0.03 in Rain Light Rain
7:53 PM 55.9 °F - 46.0 °F 69% 30.01 in 10.0 mi Variable 5.8 mph - 0.02 in Rain Light Rain
8:53 PM 53.1 °F - 48.9 °F 86% 30.03 in 6.0 mi Calm Calm - 0.05 in Rain Light Rain
9:53 PM 55.0 °F - 51.1 °F 86% 30.05 in 6.0 mi Calm Calm - 0.03 in Rain Light Rain
10:53 PM 52.0 °F - 46.9 °F 83% 30.06 in 5.0 mi South 5.8 mph - 0.10 in Rain Light Rain
11:53 PM 51.1 °F - 43.0 °F 74% 30.09 in 10.0 mi South 5.8 mph - 0.00 in   Overcast